{"data":{"norad_id":57865,"epoch":"2026-09-20T16:55:20.811072Z","epoch_age_seconds":117459,"freshness":"FRESH","line1":"1 57865U 23144B   26263.70510198 -.00001284  00000+0 -37156-4 0  9997","line2":"2 57865  43.0026 263.7615 0000816 262.6864  97.3895 15.27583744167424","mean_motion":15.27583744,"eccentricity":8.16e-5,"inclination_deg":43.0026,"raan_deg":263.7615,"arg_perigee_deg":262.6864,"mean_anomaly_deg":97.3895,"bstar":-3.7156e-5,"rev_number":16742,"period_min":94.2665176725,"perigee_km":482.47801330902,"apogee_km":483.59775705028,"semimajor_km":6861.1748851797,"source":"CELESTRAK","updated_at":"2026-09-21T09:00:33.715831Z"}}